Tetuan, Morocco

9:46 PM WEST on September 28, 2016 (GMT +0100)
Sania Ramel

Weather History for GMTN - November, 2012

Change the Weather History Date:

Friday, November 30, 2012

  Actual Average Record
Temperature  
Mean Temperature 51 °F -  
Max Temperature 54 °F 64 °F 89 °F (2010)
Min Temperature 48 °F 52 °F 42 °F (2005)
Degree Days  
Heating Degree Days 14    
Growing Degree Days 1 (Base 50)    
Moisture  
Dew Point 43 °F    
Average Humidity 71    
Maximum Humidity 93    
Minimum Humidity 49    
Precipitation  
Precipitation 0.47 in - - ()
Sea Level Pressure  
Sea Level Pressure 29.82 in    
Wind  
Wind Speed 11 mph ()    
Max Wind Speed 18 mph    
Max Gust Speed -    
Visibility 4.2 miles    
Events Rain    
Averages and records for this station are not official NWS values.
T = Trace of Precipitation, MM = Missing Value Source: Averaged Metar Reports

Daily Weather History Graph

Daily Weather History Graph

Search for Another Location

Airport or City:

Trip Planner

Search our weather history database for the weather conditions in past years. The results will help you decide how hot, cold, wet, or windy it might be!

Date:

Astronomy

Nov. 30, 2012 Rise Set
Actual Time 7:11 AM WET 5:08 PM WET
Civil Twilight 6:43 AM WET 5:36 PM WET
Nautical Twilight 6:12 AM WET 6:07 PM WET
Astronomical Twilight 5:41 AM WET 6:38 PM WET
Moon 6:50 PM WET (11/30) 8:33 AM WET (11/30)
Length of Visible Light 10h 52m
Length of Day
9h 56m
Full, 97% of the Moon is Illuminated
Nov 30
Full
Dec 6
Last Quarter
Dec 13
New
Dec 20
First Quarter
Dec 28
Full

Hourly Weather History & Observations

Time (WET) Temp. Dew Point Humidity Pressure Visibility Wind Dir Wind Speed Gust Speed Precip Events Conditions
12:00 AM 51 °F 43 °F 66% 29.98 in 3 mi West 10.4 mph - -  
12:00 AM 51.8 °F 42.8 °F 71% 29.95 in 3.1 mi West 10.4 mph - N/A   Unknown
1:00 AM 53.6 °F 41.0 °F 62% 29.95 in 3.1 mi West 11.5 mph - N/A   Unknown
2:00 AM 51.8 °F 41.0 °F 67% 29.92 in 3.1 mi West 8.1 mph - N/A   Unknown
3:00 AM 53 °F 40 °F 52% 29.91 in 3 mi West 18.4 mph - -  
3:00 AM 53.6 °F 41.0 °F 62% 29.89 in 3.1 mi West 18.4 mph - N/A   Unknown
4:00 AM 53.6 °F 41.0 °F 62% 29.86 in 3.1 mi West 17.3 mph - N/A   Unknown
5:00 AM 53.6 °F 39.2 °F 58% 29.86 in 3.1 mi West 13.8 mph - N/A   Unknown
6:00 AM 54 °F 40 °F 49% 29.86 in 4 mi West 8.1 mph - -   Overcast
6:00 AM 53.6 °F 41.0 °F 62% 29.83 in 3.7 mi West 8.1 mph - N/A   Unknown
7:00 AM 53.6 °F 41.0 °F 62% 29.80 in 3.7 mi West 8.1 mph - N/A   Unknown
8:00 AM 50.0 °F 44.6 °F 82% 29.83 in 3.7 mi West 13.8 mph - N/A Rain Light Rain
9:00 AM 49 °F 46 °F 85% 29.85 in 3 mi WSW 13.8 mph - - Rain Light Rain
9:00 AM 48.2 °F 46.4 °F 93% 29.83 in 3.1 mi WSW 13.8 mph - N/A Rain Light Rain
10:00 AM 50.0 °F 44.6 °F 82% 29.80 in 3.1 mi West 4.6 mph - N/A Rain Light Rain
1:00 PM 50.0 °F 46.4 °F 87% 29.71 in 6.2 mi SW 9.2 mph - N/A Rain Light Rain
6:00 PM 50 °F 43 °F 71% 29.73 in 6 mi West 16.1 mph - -   Partly Cloudy
6:00 PM 50.0 °F 42.8 °F 76% 29.71 in 6.2 mi West 16.1 mph - N/A   Mostly Cloudy
7:00 PM 50.0 °F 42.8 °F 76% 29.71 in 6.2 mi West 9.2 mph - N/A   Mostly Cloudy
8:00 PM 50.0 °F 44.6 °F 82% 29.71 in 6.2 mi WSW 12.7 mph - N/A   Mostly Cloudy
9:00 PM 49 °F 44 °F 75% 29.73 in 6 mi WSW 13.8 mph - -   Mostly Cloudy
9:00 PM 50.0 °F 42.8 °F 76% 29.71 in 6.2 mi WSW 13.8 mph - N/A   Mostly Cloudy